Location: Borgo
(42.3939°N, 9.2791°E)
Time: 22:21:17
(UTC+00:00)

ISS - Pass Details

Date: 24 April 2021
Orbit: 418 x 421 km, 51.6° (Epoch: 07 May)

Event Time Altitude Azimuth Distance (km) Brightness Sun altitude
Exits shadow 03:44:04 - 197° (SSW) 2,055 -0.7 -8.3°
Reaches altitude 10° 03:45:41 10° 185° (S) 1,494 -1.3 -8.1°
Maximum altitude 03:48:17 21° 134° (SE) 1,002 -1.6 -7.6°
Drops below altitude 10° 03:50:54 10° 83° (E) 1,504 0.5 -7.2°
Sets 03:53:20 0° 67° (ENE) 2,373 2.9 -6.8°
